Погода в Жереми

Гаити     18°38′41″N   74°06′45″W
темп.,
°C
ветер,
м/с
пор.,
м/с
влажн.,
%
обл.,
%
осадки,
мм/ч
давл.,
гПа
погр.,
м
17 апреля, сб
сб1723:00+26з117116 0.0 1014309
02:00+25ююв11720 0.0 1013290
05:00+25ююв11726 0.0 1013277
08:00+25ююв127085 0.0 1015341
11:00+27всв33705 0.0 1016439
14:00+27св32702 0.0 1014374
17:00+27сз32690 0.0 1013394
20:00+27з22721 0.0 1013208
18 апреля, вс
вс1823:00+27св117329 0.0 1015258
02:00+26юз11741 0.0 1014249
05:00+26з117737 0.0 1014214
08:00+26юз1177100 0.0 1015184
11:00+26ссв1176100 0.0 1016279
14:00+27с227389 0.0 1015392
17:00+27сз4375100 0.0 1014414
20:00+27з1177100 0.0 1014210
19 апреля, пн
пн1923:00+26ююв12748 0.0 1016205
02:00+26ююв12706 0.0 1015203
05:00+26юз11675 0.0 1015209
08:00+26ююв226892 0.0 1016209
11:00+27всв236882 0.0 1017339
14:00+27ссз226983 0.0 1015287
17:00+28сз32695 0.0 1014291
20:00+27зсз227457 0.0 1015182
20 апреля, вт
вт2023:00+26ю12715 0.0 1017256
02:00+26ююз22723 0.0 1016191
05:00+25ююз21757 0.0 1015198
08:00+26ююв11720 0.0 1017260
11:00+27всв23710 0.0 1017411
14:00+27с22680 0.0 1016398
17:00+27сз32670 0.0 1014339
20:00+27зсз22740 0.0 1015255
21 апреля, ср
ср2123:00+27ююз11720 0.0 1016187
02:00+26ююз21725 0.0 1015172
05:00+25юз217339 0.0 1015170
08:00+26зюз11702 0.0 1017185
11:00+26с217155 0.0 1017356
14:00+27сз337046 0.0 1016494
17:00+27сз447240 0.0 1014446
20:00+27сз117339 0.0 1015318